AirNav   Air Wisconsin pilot careers
 
 910 users online  

7GA8 Emory University Hospital Heliport
Atlanta, Georgia, USA

GOING TO ATLANTA?


FAA INFORMATION EFFECTIVE 24 MAY 2018

Location

FAA Identifier: 7GA8
Lat/Long: 33-47-30.9100N / 084-19-21.3100W
33-47.515167N / 084-19.355167W
33.7919194 / -84.3225861
(estimated)
Elevation: 1051 ft. / 320 m (estimated)
Variation: 02W (1985)
Time zone: UTC -4 (UTC -5 during Standard Time)
Zip code: 30322

Heliport Operations

Heliport use: Private use, MEDICAL USE.
Activation date: 05/1991
Control tower: no
ARTCC: ATLANTA CENTER
FSS: MACON FLIGHT SERVICE STATION
Attendance: UNATNDD
PPR 45 MINUTES TO LAND; CALL TRIAGE NURSE/ADMIN SUPVR 404-686-5500 ASK FOR PIC 23648 NR .
Wind indicator: yes
Segmented circle: no
Lights: ACTVT PERIMETER LIGHTS - 123.05.
Beacon: white-green-yellow (heliport)
ACTVT ROTG BCN - 123.05.

Heliport Communications

WX ASOS at PDK (5 nm N): PHONE 770-457-1691
WX ASOS at FTY (10 nm W): PHONE 404-696-5660
WX ASOS at ATL (11 nm SW): PHONE 404-762-1121
WX AWOS-3PT at RYY (19 nm NW): PHONE 770-425-3406

Nearby radio navigation aids

VOR radial/distance  VOR name  Freq  Var
PDKr198/5.2PEACHTREE VOR/DME116.6005W
ATLr035/11.3ATLANTA VORTAC116.9005W

 
NDB name  Hdg/Dist  Freq  Var  ID
ALCOVY293/28.737003WVOF ...- --- ..-.
CHERO168/28.841505WDJD -.. .--- -..
MONROE280/29.939204WJNM .--- -. --
PECAT021/30.631605WFFC ..-. ..-. -.-.
FLOWERY BRANCH223/32.236503WFKV ..-. -.- ...-
CARTERSVILLE137/35.630804WEVZ . ...- --..
BARROW COUNTY262/37.540405WBMW -... -- .--
COWETA COUNTY034/37.623403WEQQ . --.- --.-

Heliport Services

Runway Information

Helipad H1

Dimensions: 39 x 39 ft. / 12 x 12 m
Surface: concrete
ROOFTOP PAD.
Runway edge lights: PERIMETER LIGHTS.
Latitude: 33-47.515167N
Longitude: 084-19.355167W
Elevation: 1051.0 ft.
Traffic pattern: leftleft

Heliport Ownership and Management from official FAA records

Ownership: Privately-owned
Owner: EMORY UNIVERSITY HOSPITAL
1364 CLIFTON ROAD NE
ATLANTA, GA 30322
Phone 404-727-4881
Manager: EMORY UNIVERSITY HOSPITAL
1364 CLIFTON ROAD NE
ATLANTA, GA 30322
Phone (404) 712-2626
404-686-1000

Additional Remarks

FOR NOISE ABATEMENT USE STEEP APCH ANGLE, MAINTAIN 100 FT AGL IF POSSIBLE BUT NO LESS THAN 500 FT AGL UNTIL APCH ANGLE IS INTERCEPTED; ALL APCH/DEP ALONG 150/330.
MAXIMUM ACFT WEIGHT 10000 LBS.
A52-H1 11 STORY BLDG 23 FT NE; 12 FT TOWERS 29 FT SOUTH; 42 INCH FENCE 9 FT EAST; 42 INCH FENCE 0 FT SW OF HELIPAD.

Instrument Procedures

There are no published instrument procedures at 7GA8.

Some nearby airports with instrument procedures:

KPDK - Dekalb-Peachtree Airport (5 nm N)
KFTY - Fulton County Airport-Brown Field (10 nm W)
KATL - Hartsfield - Jackson Atlanta International Airport (11 nm SW)
KMGE - Dobbins Air Reserve Base (12 nm NW)
KRYY - Cobb County International Airport-McCollum Field (19 nm NW)
 
Loc | Ops | Rwys | IFR | FBO | Links
Com | Nav | Svcs | Stats | Notes

AirNav Hotels Sweepstakes
 
Area around 7GA8 (Emory University Hospital Heliport)
 
Road maps at: MapQuest Bing Google
 
Aerial photo
WARNING: Photo may not be current or correct
Aerial photo of 7GA8 (Emory University Hospital Heliport)
Do you have a better or more recent aerial photo of Emory University Hospital Heliport that you would like to share? If so, please send us your photo.

 
Sectional chart

 
Airport distance calculator
Flying to Emory University Hospital Heliport? Find the distance to fly.

From to 7GA8

Sunrise and sunset
Times for 27-May-2018
 Local
(UTC-4)
 Zulu
(UTC)
Morning civil twilight06:0210:02
Sunrise06:3010:30
Sunset20:3900:39
Evening civil twilight21:0701:07

Current date and time
Zulu (UTC)  27-May-2018 21:07:11
Local (UTC-4)  27-May-2018 17:07:11
 
METAR
KPDK 
6nm N 
272053Z VRB06KT 10SM FEW030 SCT040 BKN075 26/20 A2991 RMK AO2 SLP115 T02610200 56014
KFTY 
10nm W 
272053Z 11007KT 10SM FEW034 SCT043 28/21 A2990 RMK AO2 SLP115 60000 T02780211 56015
KATL 
11nm SW 
272052Z 13010KT 10SM SCT035TCU SCT150 BKN200 BKN250 28/18 A2991 RMK AO2 SLP119 TCU W AND DSNT N MDT CU NW SHRA W T02780178 56014 $
KMGE 
12nm NW 
272056Z 11014KT 10SM BKN033 OVC200 28/21 A2990 RMK AO2A SLP116 T02750205 57016 $
KRYY 
19nm NW 
272048Z 11007KT 10SM BKN034 BKN049 28/21 A2991 RMK AO2 SLP850 T02830211 58016
TAF
KPDK 
6nm N 
271745Z 2718/2818 13008KT P6SM VCSH BKN030 BKN120 FM280200 07008KT 6SM -SHRA SCT012 OVC020 FM280700 06008G15KT 4SM -SHRA BKN009 OVC015 FM281500 07010G18KT P6SM VCSH OVC015
KFTY 
10nm W 
271745Z 2718/2818 10008KT P6SM VCSH BKN030 BKN120 FM280200 07008KT 6SM -SHRA SCT012 OVC020 FM280700 06008G15KT 4SM -SHRA BKN009 OVC015 FM281500 06010G18KT P6SM VCSH OVC015
KATL 
11nm SW 
271946Z 2720/2824 10010KT P6SM VCSH BKN030 BKN120 FM280100 07010KT 6SM -SHRA SCT012 OVC020 FM280600 08012G20KT 4SM -SHRA BKN009 OVC015 FM281500 08015G25KT P6SM VCSH OVC015 FM281800 08015G25KT 4SM -SHRA OVC030 PROB30 2818/2824 5SM -TSRA BKN025CB
KMGE 
12nm NW 
271400Z 2714/2819 VRB06KT 9999 SCT020 BKN100 QNH2994INS BECMG 2714/2715 10009KT 9999 BKN020 BKN100 QNH2986INS BECMG 2806/2807 07012G18KT 8000 -RA BKN008 QNH2984INS BECMG 2817/2818 11009KT 9999 NSW BKN030 QNH2984INS TX29/2719Z TN19/2809Z
KRYY 
19nm NW 
271745Z 2718/2818 12008KT P6SM VCSH BKN030 BKN120 FM280300 10008KT 6SM -SHRA SCT012 OVC020 FM280800 06008G15KT 4SM -SHRA BKN009 OVC015 FM281600 06010G20KT P6SM VCSH OVC015
NOTAMs
Click for the latest NOTAMs
NOTAMs are issued by the DoD/FAA and will open in a separate window not controlled by AirNav.

 

 
 

Would you like to see your business listed on this page?

 If your business provides an interesting product or service to pilots, flight crews, aircraft, or users of the Emory University Hospital Heliport, you should consider listing it here.  To start the listing process, click on the button below
 
Add a business
 

Other Pages about Emory University Hospital Heliport

Update a link
 
Copyright © AirNav, LLC. All rights reserved. Privacy Policy  Contact